Location: Kaseke
(18.0171°S, 31.0526°E)
Time: 11:13:21
(UTC+00:00)

Chandra Rocket (1) - Pass Details

Date: 14 July 2020
Orbit: 331 x 11022 km, 28.4° (Epoch: 07 August)

Event Time Altitude Azimuth Distance (km) Brightness Sun altitude
Exits shadow 04:01:48 - 256° (WSW) 4,604 5.8 -6.5°
Reaches altitude 10° 04:03:35 10° 259° (W) 3,873 5.5 -6.1°
Maximum altitude 04:10:24 28° 315° (NW) 1,400 3.7 -4.6°
Drops below altitude 10° 04:13:29 10° 17° (NNE) 1,681 4.9 -3.9°
Sets 04:15:09 0° 32° (NNE) 2,298 6.0 -3.6°
